Location: Fort Wayne
(41.1310°N, 85.1290°W)
Time: 07:33:19
(UTC-04:00)

COSMOS 2428 - Visible Passes

Search period start: 26 April 2018 00:00
Search period end: 06 May 2018 00:00
Orbit: 844 x 857 km, 71.0° (Epoch: 25 April)

Date Brightness Start Highest point End Pass type
(mag) Time Alt. Az. Time Alt. Az. Time Alt. Az.
26 Apr 5.7 04:02:48 10° NNE 04:05:59 15° NE 04:09:08 10° E visible
26 Apr 2.8 05:45:23 10° NNW 05:51:06 87° ENE 05:56:46 10° SSE visible
27 Apr 5.7 03:50:29 10° NNE 03:53:39 15° NE 03:56:49 10° E visible
27 Apr 2.8 05:33:03 10° NNW 05:38:46 86° ENE 05:44:26 10° SSE visible
28 Apr 5.6 03:38:10 10° NNE 03:41:19 15° NE 03:44:28 10° E visible
28 Apr 2.7 05:20:44 10° NNW 05:26:27 86° ENE 05:32:07 10° SSE visible
29 Apr 5.6 03:25:50 10° NNE 03:29:00 15° NE 03:32:08 10° E visible
29 Apr 2.7 05:08:24 10° NNW 05:14:07 86° ENE 05:19:47 10° SSE visible
30 Apr 5.5 03:13:31 10° NNE 03:16:40 15° NE 03:19:48 10° E visible
30 Apr 2.7 04:56:04 10° NNW 05:01:48 86° ENE 05:07:27 10° SSE visible
01 May 5.5 03:01:12 10° NNE 03:04:20 15° NE 03:07:27 10° E visible
01 May 2.7 04:43:45 10° NNW 04:49:28 86° ENE 04:55:08 10° SSE visible
02 May 5.5 02:48:53 10° NNE 02:52:01 15° NE 02:55:07 10° E visible
02 May 2.7 04:31:25 10° NNW 04:37:08 86° ENE 04:42:48 10° SSE visible
03 May 5.4 02:36:34 10° NNE 02:39:40 15° NE 02:42:46 10° E visible
03 May 2.7 04:19:05 10° NNW 04:24:48 86° ENE 04:30:28 10° SSE visible
03 May 4.4 06:06:00 10° WNW 06:08:11 12° W 06:10:22 10° WSW visible
04 May 5.4 02:24:13 10° NNE 02:27:21 15° NE 02:30:26 10° E visible
04 May 2.7 04:06:45 10° NNW 04:12:28 85° ENE 04:17:25 14° SSE visible
04 May 4.4 05:53:39 10° WNW 05:55:52 12° W 05:58:03 10° WSW visible
05 May 5.3 02:11:54 10° NNE 02:15:00 15° NE 02:18:05 10° E visible
05 May 2.6 03:54:25 10° NNW 04:00:08 85° ENE 04:03:24 27° SSE visible
05 May 4.4 05:41:19 10° WNW 05:43:32 12° W 05:45:16 11° WSW visible
